Regional Weather Roundup
Issued by NWS

Home | Current Version | Previous Version | Graphics & Text | Print | Product List | Glossary On
Versions: 1 2 3 4 5 6 7 8 9 10 11 12 13 14 15 16 17 18 19 20 21 22 23 24 25 26 27 28 29 30 31 32 33 34 35 36 37 38 39 40 41 42 43 44 45 46 47 48 49 50
000
ASUS44 KMEG 251710
RWRTN
TENNESSEE HOURLY STATE WEATHER ROUNDUP
NATIONAL WEATHER SERVICE MEMPHIS TN
1200 PM CDT TUE APR 25 2017

TNZ002-004-019-021-049-052-054-088>092-251800-
WEST TENNESSEE

CITY           SKY/WX    TMP DP  RH WIND       PRES   REMARKS
MEMPHIS INTL   SUNNY     76  51  41 S15       29.74F
NWS MEMPHIS      N/A     75 N/A N/A MISG        N/A
JACKSON        SUNNY     74  52  46 SW8       29.75F
DYERSBURG      SUNNY     75  53  46 S10       29.73F
SOMERVILLE     SUNNY     75  52  43 SW14      29.74F
UNION CITY     SUNNY     73  54  49 S10G16    29.73F
BOLIVAR        SUNNY     73  50  43 S7G14     29.75F
PARIS          SUNNY     72  55  56 VRB3      29.75F
HUNTINGDON     SUNNY     73  55  53 S8        29.74F
LEXINGTON      SUNNY     72  57  60 VRB7      29.76F
SAVANNAH       SUNNY     72  55  56 CALM      29.77F
$$

TNZ008-025-027-028-033-062-065-066-251800-
NORTH MIDDLE TENNESSEE

CITY           SKY/WX    TMP DP  RH WIND       PRES   REMARKS
NASHVILLE      PTSUNNY   71  57  61 SE8       29.79F
PORTLAND       PTSUNNY   70  57  64 CALM      29.78F
CLARKSVILLE    MOSUNNY   70  55  59 SE3       29.77F
SMYRNA         PTSUNNY   71  58  63 S6        29.80F
COOKEVILLE     CLOUDY    66  57  72 SW6       29.79F
GALLATIN       SUNNY     68  55  64 CALM      29.82S
CROSSVILLE     CLOUDY    66  52  60 NW6       29.81F
$$

TNZ061-075-076-078-094-096-097-251800-
SOUTH MIDDLE TENNESSEE

CITY           SKY/WX    TMP DP  RH WIND       PRES   REMARKS
FAYETTEVILLE   SUNNY     66  57  72 CALM      29.80F
TULLAHOMA      PTSUNNY   66  55  68 CALM      29.82F
WINCHESTER     PTSUNNY   68  55  64 W5        29.81F
MCMINNVILLE    CLOUDY    66  57  72 E3        29.82S
COLUMBIA       PTSUNNY   70  64  83 VRB3      29.78F
SHELBYVILLE    PTSUNNY   70  59  68 CALM      29.82S
$$

TNZ017-018-042-046-047-251800-
NORTHEAST TENNESSEE

CITY           SKY/WX    TMP DP  RH WIND       PRES   REMARKS
TRI CITIES     CLOUDY    61  54  77 CALM      29.79F
ELIZABETHTON   CLOUDY    59  55  88 VRB3      29.79S
$$

TNZ012-013-036-069-073-074-251800-
CENTRAL EAST TENNESSEE

CITY           SKY/WX    TMP DP  RH WIND       PRES   REMARKS
KNOXVILLE      CLOUDY    67  53  61 W5        29.78F
OAK RIDGE      CLOUDY    66  54  65 VRB3      29.80F
DOWNTOWN KNOXV CLOUDY    66  55  68 CALM      29.79F
GATLINBURG     MOSUNNY   66  54  63 CALM      29.78F
MORRISTOWN     PTSUNNY   64  55  72 CALM      29.78F
JACKSBORO      CLOUDY    64  55  72 SW5       29.82F
$$

TNZ083-085-099-251800-
SOUTHEAST TENNESSEE

CITY           SKY/WX    TMP DP  RH WIND       PRES   REMARKS
CHATTANOOGA    PTSUNNY   72  55  55 W6        29.79F
$$

SKY/WX REPORTED AS FAIR MEANS FEW OR NO CLOUDS BELOW
12 THOUSAND FEET.





USA.gov is the U.S. government's official web portal to all federal, state and local government web resources and services.